Погода в Лаймингтоне

Великобритания     50°45′42″N   1°32′32″W
темп.,
°C
ветер,
м/с
пор.,
м/с
влажн.,
%
обл.,
%
осадки,
мм/ч
давл.,
гПа
погр.,
м
24 января, пн
пн2400:00+6вюв3577100 0.1 1032392
03:00+6вюв3479100 0.0 1032342
06:00+6в3478100 0.1 1031327
09:00+6в3576100 0.0 1032410
12:00+7в347294 0.0 1033791
15:00+7в347335 0.0 1032698
18:00+4всв34871 0.0 1033142
21:00+4св34910 0.0 1034115
25 января, вт
вт2500:00+3св33910 0.0 103488
03:00+2св23901 0.0 103478
06:00+2св22900 0.0 103474
09:00+2ссв22861 0.0 103582
12:00+6ссв11720 0.0 1035287
15:00+7ссз01700 0.0 1034364
18:00+4ссз11810 0.0 103466
21:00+3ссз22870 0.0 103569
26 января, ср
ср2600:00+2ссз22870 0.0 103561
03:00+1с22860 0.0 103563
06:00+1с33883 0.0 103679
09:00+2ссз22820 0.0 103685
12:00+6сз12665 0.0 1036282
15:00+7зюз23700 0.0 1034272
18:00+4з22840 0.0 1034107
21:00+3з33880 0.0 103482
27 января, чт
чт2700:00+3з35895 0.0 1033128
03:00+3зсз49895 0.0 1032197
06:00+3з51093100 0.0 1031254
09:00+5з51191100 0.0 1032327
12:00+8зсз51285100 0.0 1031495
15:00+10ссз5989100 0.0 1032561
18:00+6ссз36930 0.0 1033213
21:00+4ссз36884 0.0 1036139
28 января, пт
пт2800:00+3с36860 0.0 1037132
03:00+3ссз348699 0.0 103887
06:00+3сз34909 0.0 103889
09:00+4ссз2385100 0.0 103982
12:00+7ссз34715 0.0 1040336
15:00+8зсз126923 0.0 1038480
18:00+5з45865 0.0 1038195
21:00+4зсз3591100 0.0 1039133